RYR1KL EGSS-EYVI

Flight info

Callsign RYR1KL
Flight time 2h 8m
Altitude 39000
Route CLN P44 RATLO M197 REDFA L620 PAM DCT HLZ DCT ALUKA L29 GRUDA N858 BOKSU DCT IRKAL
Aircraft B38M/M-SADE3FGIJ1LRWY/SB1

Departure

Time 2026-05-04 07:40
Airport London Stansted Airport (EGSS)

Arrival

Time 2026-05-04 09:49
Airport Vilnius International Airport (EYVI)
Time Latitude Longitude Altitude Speed Heading
2026-05-04 07:15 51.89295 0.26131 361 ft 0 kts 223°
2026-05-04 07:29 51.89301 0.26141 351 ft 3 kts 223°
2026-05-04 07:30 51.89316 0.26164 359 ft 3 kts 223°
2026-05-04 07:30 51.89328 0.26182 364 ft 3 kts 240°
2026-05-04 07:30 51.89331 0.26203 359 ft 3 kts 299°
2026-05-04 07:30 51.89319 0.26226 361 ft 3 kts 313°
2026-05-04 07:31 51.89312 0.26239 358 ft 0 kts 313°
2026-05-04 07:34 51.89318 0.26228 361 ft 5 kts 313°
2026-05-04 07:34 51.89372 0.26134 355 ft 18 kts 313°
2026-05-04 07:35 51.89489 0.25932 355 ft 29 kts 313°
2026-05-04 07:35 51.89517 0.25787 357 ft 10 kts 227°
2026-05-04 07:35 51.89446 0.25682 355 ft 19 kts 222°
2026-05-04 07:35 51.89322 0.25490 356 ft 29 kts 224°
2026-05-04 07:36 51.89171 0.25268 354 ft 29 kts 222°
2026-05-04 07:36 51.89020 0.25042 357 ft 30 kts 223°
2026-05-04 07:38 51.87999 0.23511 351 ft 29 kts 223°
2026-05-04 07:38 51.87852 0.23289 357 ft 28 kts 223°
2026-05-04 07:38 51.87731 0.23064 354 ft 18 kts 268°
2026-05-04 07:38 51.87789 0.22931 354 ft 14 kts 314°
2026-05-04 07:39 51.87862 0.22809 349 ft 17 kts 314°
2026-05-04 07:39 51.87954 0.22671 354 ft 12 kts 356°
2026-05-04 07:39 51.87980 0.22696 350 ft 0 kts 44°
2026-05-04 07:40 51.88010 0.22744 342 ft 31 kts 44°
2026-05-04 07:40 51.88363 0.23274 351 ft 106 kts 43°
2026-05-04 07:40 51.89076 0.24331 419 ft 159 kts 41°
2026-05-04 07:40 51.89890 0.25583 1289 ft 164 kts 42°
2026-05-04 07:41 51.90712 0.26837 2354 ft 161 kts 41°
2026-05-04 07:41 51.91447 0.28285 2921 ft 174 kts 65°
2026-05-04 07:41 51.91635 0.30286 3330 ft 190 kts 96°
2026-05-04 07:41 51.91224 0.32400 3776 ft 204 kts 112°
2026-05-04 07:42 51.90648 0.34565 4180 ft 222 kts 113°
2026-05-04 07:42 51.89984 0.37001 4453 ft 250 kts 114°
2026-05-04 07:42 51.89251 0.39651 4964 ft 266 kts 115°
2026-05-04 07:42 51.88458 0.42413 5595 ft 273 kts 115°
2026-05-04 07:43 51.87655 0.45176 6483 ft 273 kts 116°
2026-05-04 07:43 51.86828 0.48014 7153 ft 280 kts 116°
2026-05-04 07:43 51.85993 0.50866 7957 ft 281 kts 116°
2026-05-04 07:43 51.85138 0.53781 8678 ft 286 kts 117°
2026-05-04 07:44 51.84288 0.56672 9440 ft 289 kts 117°
2026-05-04 07:44 51.83427 0.59631 10144 ft 293 kts 114°
2026-05-04 07:44 51.82972 0.62901 10578 ft 309 kts 92°
2026-05-04 07:44 51.83064 0.66466 10942 ft 324 kts 88°
2026-05-04 07:45 51.83207 0.70167 11460 ft 333 kts 87°
2026-05-04 07:45 51.83345 0.73916 12268 ft 334 kts 88°
2026-05-04 07:45 51.83486 0.77688 12987 ft 339 kts 88°
2026-05-04 07:45 51.83820 0.81486 13738 ft 345 kts 75°
2026-05-04 07:46 51.84486 0.85242 14431 ft 349 kts 75°
2026-05-04 07:46 51.85143 0.89029 15140 ft 352 kts 75°
2026-05-04 07:46 51.85801 0.92844 15849 ft 356 kts 75°
2026-05-04 07:46 51.86470 0.96732 16555 ft 360 kts 76°
2026-05-04 07:47 51.87144 1.00661 17248 ft 364 kts 76°
2026-05-04 07:47 51.87823 1.04629 17944 ft 368 kts 76°
2026-05-04 07:47 51.88508 1.08637 18562 ft 372 kts 76°
2026-05-04 07:49 51.93461 1.37923 22299 ft 399 kts 76°
2026-05-04 07:49 51.94192 1.42289 22831 ft 403 kts 76°
2026-05-04 07:49 51.94925 1.46678 23330 ft 407 kts 76°
2026-05-04 07:50 51.95669 1.51144 23795 ft 411 kts 76°
2026-05-04 07:50 51.96415 1.55635 24223 ft 414 kts 76°
2026-05-04 07:50 51.97166 1.60164 24639 ft 418 kts 77°
2026-05-04 07:50 51.97923 1.64746 25052 ft 422 kts 77°
2026-05-04 07:51 51.98685 1.69365 25466 ft 426 kts 77°
2026-05-04 07:51 51.99449 1.74019 25872 ft 430 kts 78°
2026-05-04 07:51 52.00222 1.78725 26276 ft 433 kts 78°
2026-05-04 07:51 52.00997 1.83470 26670 ft 437 kts 78°
2026-05-04 07:52 52.01777 1.88254 27065 ft 440 kts 78°
2026-05-04 07:52 52.02562 1.93080 27441 ft 444 kts 79°
2026-05-04 07:52 52.03340 1.97877 27818 ft 447 kts 79°
2026-05-04 07:52 52.04143 2.02849 28195 ft 451 kts 79°
2026-05-04 07:53 52.04940 2.07795 28556 ft 454 kts 79°
2026-05-04 07:54 52.10614 2.43391 30969 ft 472 kts 79°
2026-05-04 07:55 52.11457 2.48555 31294 ft 474 kts 76°
2026-05-04 07:55 52.12460 2.53677 31635 ft 476 kts 75°
2026-05-04 07:55 52.13448 2.58815 31971 ft 477 kts 75°
2026-05-04 07:55 52.14431 2.63989 32286 ft 478 kts 75°
2026-05-04 07:56 52.15406 2.69153 32615 ft 479 kts 75°
2026-05-04 07:56 52.16383 2.74344 32928 ft 480 kts 75°
2026-05-04 07:56 52.17348 2.79491 33235 ft 482 kts 74°
2026-05-04 07:56 52.18338 2.84777 33523 ft 483 kts 74°
2026-05-04 07:57 52.19304 2.89961 33832 ft 484 kts 74°
2026-05-04 07:57 52.20283 2.95225 34127 ft 485 kts 74°
2026-05-04 07:57 52.21258 3.00479 34456 ft 484 kts 74°
2026-05-04 07:57 52.22228 3.05726 34787 ft 483 kts 74°
2026-05-04 07:58 52.23196 3.10970 35098 ft 482 kts 74°
2026-05-04 07:58 52.24160 3.16209 35408 ft 482 kts 74°
2026-05-04 07:58 52.25120 3.21437 35725 ft 481 kts 74°
2026-05-04 07:58 52.26082 3.26667 36019 ft 480 kts 74°
2026-05-04 07:59 52.27039 3.31874 36303 ft 480 kts 74°
2026-05-04 07:59 52.27996 3.37101 36593 ft 479 kts 74°
2026-05-04 07:59 52.28946 3.42300 36873 ft 479 kts 74°
2026-05-04 07:59 52.29894 3.47503 37143 ft 478 kts 75°
2026-05-04 08:00 52.30522 3.50960 37302 ft 478 kts 75°
2026-05-04 08:00 52.31785 3.57929 37631 ft 478 kts 75°
2026-05-04 08:00 52.32725 3.63134 37871 ft 478 kts 75°
2026-05-04 08:02 52.36456 3.98290 38968 ft 470 kts 94°
2026-05-04 08:02 52.36249 4.09014 38986 ft 472 kts 95°
2026-05-04 08:03 52.35996 4.19728 38988 ft 472 kts 95°
2026-05-04 08:03 52.35730 4.30466 38992 ft 474 kts 95°
2026-05-04 08:04 52.35452 4.41243 38992 ft 480 kts 95°
2026-05-04 08:04 52.35159 4.52279 38990 ft 484 kts 95°
2026-05-04 08:05 52.34857 4.63210 38989 ft 485 kts 95°
2026-05-04 08:05 52.34542 4.74223 38998 ft 485 kts 95°
2026-05-04 08:06 52.34215 4.85319 38990 ft 485 kts 96°
2026-05-04 08:06 52.33879 4.96352 38993 ft 486 kts 96°
2026-05-04 08:08 52.34349 5.40652 38988 ft 490 kts 90°
2026-05-04 08:11 52.35570 5.90822 38985 ft 492 kts 91°
2026-05-04 08:11 52.35930 6.07593 38978 ft 493 kts 91°
2026-05-04 08:12 52.36158 6.18808 38978 ft 493 kts 91°
2026-05-04 08:12 52.36376 6.30020 38980 ft 493 kts 91°
2026-05-04 08:13 52.36583 6.41244 38979 ft 494 kts 91°
2026-05-04 08:13 52.36779 6.52475 38979 ft 494 kts 91°
2026-05-04 08:14 52.36965 6.63732 38979 ft 495 kts 91°
2026-05-04 08:16 52.37602 7.08771 38981 ft 495 kts 91°
2026-05-04 08:16 52.37735 7.20043 38981 ft 495 kts 91°
2026-05-04 08:17 52.37856 7.31318 38992 ft 495 kts 91°
2026-05-04 08:17 52.37968 7.42596 38994 ft 495 kts 91°
2026-05-04 08:19 52.38305 7.87696 38988 ft 496 kts 92°
2026-05-04 08:20 52.38362 7.98962 38990 ft 496 kts 92°
2026-05-04 08:20 52.38410 8.10260 38990 ft 496 kts 92°
2026-05-04 08:21 52.38446 8.21544 38987 ft 496 kts 92°
2026-05-04 08:21 52.38471 8.32816 38996 ft 496 kts 92°
2026-05-04 08:22 52.38486 8.44127 38985 ft 496 kts 92°
2026-05-04 08:24 52.38437 8.89279 38990 ft 496 kts 92°
2026-05-04 08:24 52.38398 9.00553 38993 ft 496 kts 92°
2026-05-04 08:25 52.38348 9.11819 38991 ft 495 kts 92°
2026-05-04 08:25 52.38287 9.23114 38989 ft 495 kts 92°
2026-05-04 08:27 52.37939 9.68143 39005 ft 494 kts 93°
2026-05-04 08:28 52.37825 9.79372 38989 ft 493 kts 93°
2026-05-04 08:28 52.37701 9.90533 38985 ft 493 kts 93°
2026-05-04 08:29 52.37565 10.01830 38971 ft 493 kts 93°
2026-05-04 08:31 52.36931 10.46515 38989 ft 491 kts 93°
2026-05-04 08:33 52.37431 10.85377 38998 ft 491 kts 74°
2026-05-04 08:33 52.38343 10.90766 38977 ft 491 kts 75°
2026-05-04 08:35 52.45493 11.33937 38980 ft 490 kts 76°
2026-05-04 08:35 52.47254 11.44724 38971 ft 489 kts 76°
2026-05-04 08:37 52.53335 11.82499 38981 ft 489 kts 76°
2026-05-04 08:38 52.55047 11.93295 38978 ft 488 kts 76°
2026-05-04 08:38 52.56750 12.04101 38972 ft 488 kts 76°
2026-05-04 08:40 52.63461 12.47385 38971 ft 488 kts 77°
2026-05-04 08:41 52.65111 12.58214 38968 ft 488 kts 77°
2026-05-04 08:41 52.66749 12.69034 38963 ft 487 kts 77°
2026-05-04 08:42 52.68370 12.79805 38963 ft 487 kts 77°
2026-05-04 08:42 52.69988 12.90637 38965 ft 487 kts 77°
2026-05-04 08:43 52.71598 13.01490 38963 ft 487 kts 77°
2026-05-04 08:43 52.72926 13.10501 38962 ft 487 kts 77°
2026-05-04 08:44 52.74530 13.21449 38958 ft 487 kts 77°
2026-05-04 08:46 52.80790 13.64936 38962 ft 488 kts 78°
2026-05-04 08:46 52.82330 13.75832 38963 ft 488 kts 78°
2026-05-04 08:47 52.83870 13.86802 38963 ft 489 kts 78°
2026-05-04 08:47 52.85396 13.97744 38961 ft 489 kts 78°
2026-05-04 08:48 52.86918 14.08720 38961 ft 489 kts 78°
2026-05-04 08:48 52.88430 14.19699 38961 ft 490 kts 78°
2026-05-04 08:49 52.89970 14.30683 38960 ft 490 kts 76°
2026-05-04 08:50 52.96026 14.68953 38963 ft 491 kts 76°
2026-05-04 08:51 52.97730 14.79918 38966 ft 491 kts 77°
2026-05-04 08:51 52.99426 14.90906 38966 ft 491 kts 77°
2026-05-04 08:52 53.01109 15.01889 38962 ft 491 kts 77°
2026-05-04 08:52 53.02780 15.12865 38962 ft 491 kts 77°
2026-05-04 08:54 53.09358 15.56821 38969 ft 490 kts 77°
2026-05-04 08:55 53.10989 15.67908 38970 ft 490 kts 77°
2026-05-04 08:55 53.12591 15.78859 38970 ft 490 kts 77°
2026-05-04 09:01 53.28931 16.94929 38959 ft 489 kts 78°
2026-05-04 09:01 53.30427 17.06062 38956 ft 488 kts 78°
2026-05-04 09:02 53.31893 17.17055 38955 ft 488 kts 78°
2026-05-04 09:02 53.33371 17.28221 38956 ft 488 kts 78°
2026-05-04 09:03 53.34828 17.39315 38944 ft 487 kts 78°
2026-05-04 09:03 53.36274 17.50409 38948 ft 487 kts 78°
2026-05-04 09:04 53.37706 17.61486 38949 ft 486 kts 78°
2026-05-04 09:04 53.39122 17.72522 38946 ft 485 kts 78°
2026-05-04 09:05 53.40531 17.83597 38946 ft 485 kts 78°
2026-05-04 09:05 53.41925 17.94633 38944 ft 484 kts 78°
2026-05-04 09:06 53.43298 18.05597 38941 ft 483 kts 79°
2026-05-04 09:08 53.48719 18.49750 38940 ft 483 kts 79°
2026-05-04 09:08 53.50051 18.60816 38938 ft 483 kts 79°
2026-05-04 09:09 53.51372 18.71864 38939 ft 483 kts 79°
2026-05-04 09:09 53.53077 18.82756 38940 ft 482 kts 71°
2026-05-04 09:10 53.55243 18.93441 38939 ft 483 kts 71°
2026-05-04 09:10 53.57411 19.04121 38936 ft 482 kts 71°
2026-05-04 09:11 53.59571 19.14810 38938 ft 482 kts 71°
2026-05-04 09:11 53.61718 19.25493 38937 ft 482 kts 71°
2026-05-04 09:12 53.63860 19.36203 38936 ft 482 kts 72°
2026-05-04 09:14 53.72305 19.79046 38938 ft 481 kts 72°
2026-05-04 09:14 53.74385 19.89760 38936 ft 480 kts 72°
2026-05-04 09:15 53.76451 20.00468 38938 ft 480 kts 72°
2026-05-04 09:15 53.78510 20.11197 38934 ft 479 kts 72°
2026-05-04 09:17 53.87638 20.59477 38921 ft 477 kts 73°
2026-05-04 09:18 53.89634 20.70193 38915 ft 477 kts 73°
2026-05-04 09:18 53.91622 20.80927 38916 ft 477 kts 73°
2026-05-04 09:19 53.93604 20.91686 38923 ft 477 kts 73°
2026-05-04 09:19 53.95572 21.02432 38918 ft 477 kts 73°
2026-05-04 09:20 53.97530 21.13187 38915 ft 476 kts 73°
2026-05-04 09:20 53.99476 21.23932 38916 ft 476 kts 73°
2026-05-04 09:21 54.01402 21.34612 38912 ft 476 kts 73°
2026-05-04 09:21 54.03345 21.45450 38914 ft 475 kts 73°
2026-05-04 09:22 54.05248 21.56127 38907 ft 475 kts 73°
2026-05-04 09:22 54.07167 21.66961 38907 ft 475 kts 73°
2026-05-04 09:23 54.09054 21.77670 38906 ft 475 kts 73°
2026-05-04 09:23 54.10938 21.88433 38905 ft 474 kts 74°
2026-05-04 09:25 54.18374 22.31579 38897 ft 474 kts 74°
2026-05-04 09:26 54.20205 22.42375 38900 ft 474 kts 74°
2026-05-04 09:26 54.22026 22.53184 38891 ft 473 kts 74°
2026-05-04 09:27 54.23836 22.63999 38893 ft 473 kts 74°
2026-05-04 09:27 54.25637 22.74816 38890 ft 473 kts 75°
2026-05-04 09:28 54.27424 22.85618 38751 ft 471 kts 75°
2026-05-04 09:28 54.28311 22.91010 37922 ft 472 kts 75°
2026-05-04 09:28 54.29206 22.96460 36998 ft 477 kts 75°
2026-05-04 09:29 54.29797 23.00069 36563 ft 476 kts 75°
2026-05-04 09:29 54.30678 23.05506 36006 ft 473 kts 75°
2026-05-04 09:29 54.31530 23.10951 35216 ft 475 kts 75°
2026-05-04 09:29 54.32387 23.16423 34538 ft 475 kts 75°
2026-05-04 09:30 54.33240 23.21883 33870 ft 475 kts 75°
2026-05-04 09:30 54.34096 23.27377 33006 ft 477 kts 75°
2026-05-04 09:30 54.34951 23.32882 32232 ft 478 kts 75°
2026-05-04 09:30 54.35805 23.38393 31485 ft 478 kts 75°
2026-05-04 09:31 54.36655 23.43905 30685 ft 479 kts 75°
2026-05-04 09:31 54.37508 23.49451 29814 ft 482 kts 76°
2026-05-04 09:31 54.38364 23.55034 28815 ft 485 kts 76°
2026-05-04 09:31 54.39219 23.60628 27926 ft 485 kts 76°
2026-05-04 09:32 54.40071 23.66228 26992 ft 486 kts 76°
2026-05-04 09:32 54.40920 23.71824 26005 ft 488 kts 76°
2026-05-04 09:34 54.46722 24.10590 17855 ft 455 kts 76°
2026-05-04 09:34 54.47499 24.15832 16736 ft 445 kts 75°
2026-05-04 09:34 54.48602 24.20723 15633 ft 436 kts 59°
2026-05-04 09:34 54.50186 24.25023 15024 ft 416 kts 57°
2026-05-04 09:35 54.51685 24.29184 14398 ft 404 kts 57°
2026-05-04 09:35 54.53130 24.33245 13797 ft 390 kts 57°
2026-05-04 09:35 54.54516 24.37172 13202 ft 378 kts 57°
2026-05-04 09:35 54.55858 24.40991 12625 ft 366 kts 57°
2026-05-04 09:37 54.63990 24.64282 10584 ft 305 kts 58°
2026-05-04 09:37 54.65079 24.67420 10423 ft 306 kts 58°
2026-05-04 09:38 54.66172 24.70574 10271 ft 305 kts 58°
2026-05-04 09:38 54.67259 24.73712 10095 ft 303 kts 58°
2026-05-04 09:38 54.68337 24.76833 9924 ft 303 kts 59°
2026-05-04 09:38 54.69419 24.79963 9560 ft 302 kts 59°
2026-05-04 09:39 54.70481 24.83043 9192 ft 296 kts 59°
2026-05-04 09:39 54.71532 24.86094 8862 ft 298 kts 59°
2026-05-04 09:39 54.72594 24.89179 8503 ft 297 kts 59°
2026-05-04 09:39 54.73648 24.92250 8155 ft 295 kts 59°
2026-05-04 09:40 54.74694 24.95294 7834 ft 295 kts 59°
2026-05-04 09:40 54.75744 24.98358 7442 ft 294 kts 60°
2026-05-04 09:40 54.76777 25.01372 7127 ft 292 kts 60°
2026-05-04 09:40 54.77818 25.04418 6790 ft 292 kts 60°
2026-05-04 09:41 54.78853 25.07446 6429 ft 293 kts 60°
2026-05-04 09:42 54.83901 25.27955 4945 ft 232 kts 115°
2026-05-04 09:43 54.83347 25.30537 4864 ft 226 kts 115°
2026-05-04 09:43 54.82785 25.33100 4673 ft 230 kts 116°
2026-05-04 09:43 54.82202 25.35699 4534 ft 231 kts 117°
2026-05-04 09:43 54.81322 25.37872 4314 ft 213 kts 147°
2026-05-04 09:44 54.80030 25.38858 4016 ft 200 kts 177°
2026-05-04 09:44 54.78670 25.38725 3679 ft 194 kts 194°
2026-05-04 09:44 54.77386 25.38169 3396 ft 184 kts 201°
2026-05-04 09:46 54.70192 25.33276 1981 ft 143 kts 204°
2026-05-04 09:46 54.69283 25.32697 1706 ft 136 kts 204°
2026-05-04 09:46 54.68424 25.32129 1592 ft 136 kts 204°
2026-05-04 09:47 54.67543 25.31448 1368 ft 138 kts 201°
2026-05-04 09:47 54.66653 25.30871 1246 ft 139 kts 204°
2026-05-04 09:49 54.62964 25.28154 617 ft 7 kts 294°
2026-05-04 09:49 54.63000 25.28027 612 ft 7 kts 322°
2026-05-04 09:49 54.63061 25.28030 619 ft 10 kts 18°
2026-05-04 09:51 54.63609 25.28363 628 ft 11 kts 349°
2026-05-04 09:51 54.63694 25.28331 626 ft 13 kts 347°
2026-05-04 09:51 54.63775 25.28300 637 ft 11 kts 348°
2026-05-04 09:51 54.63846 25.28273 637 ft 10 kts 347°
2026-05-04 09:52 54.63909 25.28248 638 ft 9 kts 347°
2026-05-04 09:52 54.63973 25.28222 637 ft 10 kts 347°
2026-05-04 09:52 54.64045 25.28194 642 ft 12 kts 347°
2026-05-04 09:52 54.64127 25.28164 642 ft 11 kts 355°
2026-05-04 09:53 54.64161 25.28184 640 ft 2 kts 49°
2026-05-04 09:53 54.64167 25.28206 649 ft 4 kts 68°
2026-05-04 09:53 54.64184 25.28275 646 ft 5 kts 45°
2026-05-04 09:53 54.64213 25.28281 640 ft 7 kts
2026-05-04 09:54 54.64241 25.28281 644 ft 2 kts 359°
2026-05-04 09:54 54.64242 25.28281 644 ft 0 kts 359°